Tracking 19792 objects as of 16-Jul-2019
HD Live streaming from Space Station
objects crossing your sky now

SL-6 R/B(2)

Track SL-6 R/B(2) now!


NORAD ID: 10155
Int'l Code: 1977-054D
Perigee: 301.6 km
Apogee: 32,950.9 km
Inclination: 62.8 °
Period: 578.5 minutes
Semi major axis: 22997 km
RCS: 7.637 m2 (large)
Launch date: June 24, 1977
Source: Commonwealth of Independent States (former USSR) (CIS)
Launch site: TYURATAM MISSILE AND SPACE COMPLEX (TTMTR)

Note: This is a ROCKET BODY
aabbcc
Your satellite tracking list
Your tracking list is empty




NASA's NSSDC Master Catalog

Two Line Element Set (TLE):
1 10155U 77054D   19196.44315870 +.00000101 +00000-0 +41754-4 0  9990
2 10155 062.8404 299.6360 7098505 282.3186 012.5378 02.48936610055811
Source of the keplerian elements: AFSPC